Tracking 19832 objects as of 26-Aug-2019
HD Live streaming from Space Station
objects crossing your sky now

RADUGA 26

Track RADUGA 26 now!
RADUGA 26 is classified as:


NORAD ID: 21016
Int'l Code: 1990-112A
Perigee: 35,779.9 km
Apogee: 35,834.3 km
Inclination: 14.8 °
Period: 1,436.8 minutes
Semi major axis: 42178 km
RCS: 2.5118 m2 (large)
Launch date: December 20, 1990
Source: Commonwealth of Independent States (former USSR) (CIS)
Launch site: TYURATAM MISSILE AND SPACE COMPLEX (TTMTR)
aabbcc
Your satellite tracking list
Your tracking list is empty




NASA's NSSDC Master Catalog

Two Line Element Set (TLE):
1 21016U 90112A   19237.85674624 -.00000060 +00000-0 +00000-0 0  9994
2 21016 014.8211 357.9640 0006450 028.8156 326.1855 01.00224191105318
Source of the keplerian elements: AFSPC